Location: Bastogne Gables
(35.1554°N, 78.9900°W)
Time: 02:23:33
(UTC+00:00)

CZ-4 R/B - Pass Details

Date: 29 October 2020
Orbit: 532 x 598 km, 97.7° (Epoch: 26 November)

Event Time Altitude Azimuth Distance (km) Brightness Sun altitude
Rises 23:44:11 0° 160° (SSE) 2,705 4.7 -16.9°
Reaches altitude 10° 23:46:19 10° 158° (SSE) 1,806 3.8 -17.4°
Maximum altitude 23:50:10 65° 76° (ENE) 597 1.2 -18.2°
Drops below altitude 10° 23:54:00 10° 355° (N) 1,794 3.9 -18.9°
Sets 23:56:07 0° 352° (N) 2,685 4.9 -19.4°
